DW4127 Weather Reports


Display with metric or nautical units.
time (UTC)temp
F
wind
direction
speed
MPH
gust
MPH
rain 1hr
in
rain 24hr
in
rain mn
in
humidity
%
barometer
mb
20260831120535 81 90 2.0 4.0 0.00 0.00 0.00 70 1015.1
20260831115535 81 113 2.0 6.0 0.00 0.00 0.00 70 1014.9
20260831114535 81 113 2.0 4.0 0.00 0.00 0.00 70 1014.7
20260831113555 81 113 2.0 4.0 0.00 0.00 0.00 70 1014.7
20260831112535 81 113 2.0 9.0 0.00 0.00 0.00 69 1014.6
20260831111534 81 113 1.0 4.0 0.00 0.00 0.00 69 1014.4
20260831110555 81 113 1.0 3.0 0.00 0.00 0.00 69 1014.3
20260831105537 81 113 1.0 3.0 0.00 0.00 0.00 68 1014.3
20260831104537 82 113 1.0 3.0 0.00 0.00 0.00 68 1014.2
20260831103557 82 113 1.0 4.0 0.00 0.00 0.00 68 1014.3
20260831102537 82 113 1.0 3.0 0.00 0.00 0.00 67 1014.3
20260831101537 82 113 1.0 3.0 0.00 0.00 0.00 67 1014.3
20260831100536 82 90 1.0 2.0 0.00 0.00 0.00 67 1014.4
20260831095537 83 90 2.0 4.0 0.00 0.00 0.00 66 1014.3
20260831094536 83 113 2.0 6.0 0.00 0.00 0.00 65 1014.2
20260831093536 83 90 1.0 3.0 0.00 0.00 0.00 64 1014.3
20260831092536 83 113 2.0 7.0 0.00 0.00 0.00 63 1014.2
20260831091557 84 135 2.0 8.0 0.00 0.00 0.00 62 1014.1
20260831090537 84 113 2.0 6.0 0.00 0.00 0.00 61 1014.0
20260831085536 85 113 2.0 4.0 0.00 0.00 0.00 60 1014.0
20260831084536 85 135 1.0 2.0 0.00 0.00 0.00 59 1013.9
20260831083557 85 135 2.0 4.0 0.00 0.00 0.00 58 1014.0
20260831082536 85 158 2.0 4.0 0.00 0.00 0.00 57 1013.8
20260831081557 85 158 3.0 7.0 0.00 0.00 0.00 57 1013.9
20260831080537 86 135 2.0 6.0 0.00 0.00 0.00 56 1013.8
20260831075535 86 158 3.0 10.0 0.00 0.00 0.00 55 1013.8
20260831074537 86 158 5.0 12.0 0.00 0.00 0.00 54 1013.6
20260831073536 86 135 3.0 8.0 0.00 0.00 0.00 54 1013.7
20260831072536 86 135 2.0 5.0 0.00 0.00 0.00 55 1013.7
20260831071536 86 113 1.0 3.0 0.00 0.00 0.00 55 1013.5
20260831070536 86 135 2.0 5.0 0.00 0.00 0.00 54 1013.5
20260831065536 86 135 2.0 7.0 0.00 0.00 0.00 54 1013.7
20260831064536 86 135 2.0 5.0 0.00 0.00 0.00 55 1013.7
20260831063557 86 135 1.0 3.0 0.00 0.00 0.00 55 1013.7
20260831062536 87 135 1.0 3.0 0.00 0.00 0.00 54 1013.6
20260831061536 87 113 1.0 4.0 0.00 0.00 0.00 54 1013.6
20260831060536 87 113 2.0 4.0 0.00 0.00 0.00 54 1013.7
20260831055536 88 113 2.0 4.0 0.00 0.00 0.00 53 1013.8
20260831054537 88 135 1.0 4.0 0.00 0.00 0.00 51 1013.7
20260831053537 89 135 2.0 5.0 0.00 0.00 0.00 50 1013.9
20260831052536 89 113 1.0 3.0 0.00 0.00 0.00 50 1013.7
20260831051536 89 113 1.0 6.0 0.00 0.00 0.00 50 1013.5
20260831050536 89 113 2.0 4.0 0.00 0.00 0.00 48 1013.5
20260831045535 89 113 3.0 7.0 0.00 0.00 0.00 48 1013.5
20260831044556 89 0.0 1.0 0.00 0.00 0.00 48 1013.4
20260831043535 89 113 1.0 3.0 0.00 0.00 0.00 48 1013.4
20260831042536 89 113 1.0 4.0 0.00 0.00 0.00 48 1013.4
20260831041635 89 113 1.0 3.0 0.00 0.00 0.00 48 1013.4
20260831040536 89 113 1.0 4.0 0.00 0.00 0.00 48 1013.3
20260831035556 89 113 2.0 4.0 0.00 0.00 0.00 48 1013.2
20260831034536 89 0.0 2.0 0.00 0.00 0.00 48 1013.1
20260831033535 89 0.0 2.0 0.00 0.00 0.00 48 1013.1
20260831032535 89 0.0 1.0 0.00 0.00 0.00 49 1013.0
20260831031536 90 90 1.0 3.0 0.00 0.00 0.00 47 1013.1
20260831030536 90 90 1.0 2.0 0.00 0.00 0.00 46 1013.0
20260831025556 91 90 1.0 4.0 0.00 0.00 0.00 46 1012.9
20260831024535 91 90 1.0 3.0 0.00 0.00 0.00 45 1012.8
20260831023535 91 90 1.0 4.0 0.00 0.00 0.00 44 1012.7
20260831022535 92 90 1.0 3.0 0.00 0.00 0.00 44 1012.6
20260831021535 92 68 2.0 4.0 0.00 0.00 0.00 44 1012.4
20260831020535 93 90 1.0 3.0 0.00 0.00 0.00 43 1012.3
20260831015535 93 68 2.0 4.0 0.00 0.00 0.00 42 1012.1
20260831014535 94 90 2.0 4.0 0.00 0.00 0.00 41 1012.0
20260831013535 94 90 3.0 7.0 0.00 0.00 0.00 40 1011.9
20260831012535 94 68 3.0 6.0 0.00 0.00 0.00 40 1011.8
20260831011535 95 90 2.0 5.0 0.00 0.00 0.00 40 1011.7
20260831010535 95 90 1.0 4.0 0.00 0.00 0.00 39 1011.8
20260831005555 96 90 3.0 7.0 0.00 0.00 0.00 39 1011.7
20260831004535 96 90 2.0 6.0 0.00 0.00 0.00 39 1011.6
20260831003535 96 90 4.0 9.0 0.00 0.00 0.00 38 1011.6
20260831002535 97 90 3.0 7.0 0.00 0.00 0.00 37 1011.6
20260831001535 97 90 4.0 8.0 0.00 0.00 0.00 37 1011.7
20260831000535 98 90 5.0 11.0 0.00 0.00 0.00 36 1011.7
20260830235535 98 90 5.0 10.0 0.00 0.00 0.00 36 1011.8
20260830234535 98 90 4.0 8.0 0.00 0.00 0.00 36 1011.8
20260830233535 99 113 4.0 12.0 0.00 0.00 0.00 35 1011.8
20260830232535 100 90 5.0 9.0 0.00 0.00 0.00 36 1011.9
20260830231535 99 113 4.0 9.0 0.00 0.00 0.00 35 1011.8
20260830230615 100 90 4.0 7.0 0.00 0.00 0.00 34 1011.8
20260830225535 99 90 4.0 9.0 0.00 0.00 0.00 34 1011.9
20260830224535 100 90 3.0 7.0 0.00 0.00 0.00 34 1012.0
20260830223535 99 90 3.0 6.0 0.00 0.00 0.00 35 1012.1
20260830222535 99 90 6.0 11.0 0.00 0.00 0.00 34 1012.1
20260830221555 101 90 4.0 7.0 0.00 0.00 0.00 34 1012.0
20260830220535 99 113 3.0 5.0 0.00 0.00 0.00 34 1012.1
20260830215555 100 90 5.0 10.0 0.00 0.00 0.00 32 1012.1
20260830214535 100 90 6.0 13.0 0.00 0.00 0.00 32 1012.1
20260830213535 101 90 4.0 8.0 0.00 0.00 0.00 31 1012.3
20260830212535 103 90 3.0 8.0 0.00 0.00 0.00 32 1012.5
20260830211555 103 68 4.0 15.0 0.00 0.00 0.00 32 1012.5
20260830210535 102 135 4.0 9.0 0.00 0.00 0.00 34 1012.6
20260830205555 101 113 5.0 10.0 0.00 0.00 0.00 35 1012.9
20260830204535 99 90 5.0 9.0 0.00 0.00 0.00 36 1012.9
20260830203535 100 135 4.0 12.0 0.00 0.00 0.00 35 1013.1
20260830202535 101 113 5.0 9.0 0.00 0.00 0.00 34 1013.2
20260830201535 102 90 5.0 12.0 0.00 0.00 0.00 35 1013.4
20260830200535 101 113 3.0 7.0 0.00 0.00 0.00 36 1013.4
20260830195535 101 113 2.0 11.0 0.00 0.00 0.00 35 1013.7
20260830194535 101 135 5.0 11.0 0.00 0.00 0.00 35 1013.9
20260830193555 99 90 5.0 12.0 0.00 0.00 0.00 38 1013.8
20260830192535 100 90 5.0 11.0 0.00 0.00 0.00 37 1014.0
20260830191555 99 135 5.0 11.0 0.00 0.00 0.00 37 1014.2
20260830190535 100 113 5.0 11.0 0.00 0.00 0.00 38 1014.3
20260830185535 100 135 4.0 10.0 0.00 0.00 0.00 39 1014.4
20260830184535 99 135 5.0 9.0 0.00 0.00 0.00 39 1014.5
20260830183535 100 113 7.0 16.0 0.00 0.00 0.00 39 1014.4
20260830182555 99 113 5.0 10.0 0.00 0.00 0.00 40 1014.7
20260830181535 100 113 6.0 11.0 0.00 0.00 0.00 39 1014.9
20260830180535 99 113 4.0 8.0 0.00 0.00 0.00 41 1015.0
20260830175535 98 113 6.0 12.0 0.00 0.00 0.00 42 1015.2
20260830174535 98 135 4.0 9.0 0.00 0.00 0.00 42 1015.3
20260830173535 98 90 6.0 12.0 0.00 0.00 0.00 43 1015.6
20260830172535 98 135 5.0 12.0 0.00 0.00 0.00 44 1015.6
20260830171535 95 135 3.0 8.0 0.00 0.00 0.00 48 1015.8
20260830170535 95 135 4.0 10.0 0.00 0.00 0.00 47 1015.9
20260830165535 95 158 4.0 10.0 0.00 0.00 0.00 49 1016.0
20260830164535 95 135 3.0 10.0 0.00 0.00 0.00 50 1016.0
20260830163535 94 135 3.0 9.0 0.00 0.00 0.00 51 1016.2
20260830162535 93 158 4.0 10.0 0.00 0.00 0.00 53 1016.2
20260830161535 93 135 3.0 10.0 0.00 0.00 0.00 54 1016.3
20260830160535 91 158 4.0 9.0 0.00 0.00 0.00 55 1016.2
20260830155535 91 135 4.0 9.0 0.00 0.00 0.00 55 1016.2
20260830154555 91 135 3.0 7.0 0.00 0.00 0.00 57 1016.2
20260830153535 90 113 4.0 9.0 0.00 0.00 0.00 57 1016.3
20260830152535 89 158 5.0 10.0 0.00 0.00 0.00 58 1016.3
20260830151535 89 158 3.0 6.0 0.00 0.00 0.00 61 1016.2
20260830150535 89 135 4.0 10.0 0.00 0.00 0.00 59 1016.2
20260830145535 88 135 3.0 8.0 0.00 0.00 0.00 60 1016.2
20260830144535 88 135 3.0 6.0 0.00 0.00 0.00 61 1016.1
20260830143535 86 113 3.0 8.0 0.00 0.00 0.00 63 1016.0
20260830142535 86 113 4.0 8.0 0.00 0.00 0.00 65 1016.3
20260830141535 86 113 3.0 7.0 0.00 0.00 0.00 65 1016.4
20260830140555 85 90 3.0 6.0 0.00 0.00 0.00 66 1016.3
20260830135535 84 158 3.0 7.0 0.00 0.00 0.00 67 1016.2
20260830134615 83 113 2.0 4.0 0.00 0.00 0.00 68 1016.2
20260830133535 83 113 3.0 4.0 0.00 0.00 0.00 69 1016.2
20260830132535 82 113 2.0 5.0 0.00 0.00 0.00 70 1016.1
20260830131535 82 113 3.0 6.0 0.00 0.00 0.00 70 1016.0
20260830130535 81 113 1.0 3.0 0.00 0.00 0.00 71 1015.8
20260830125534 81 90 2.0 6.0 0.00 0.00 0.00 71 1015.7
20260830124535 80 113 2.0 4.0 0.00 0.00 0.00 71 1015.6
20260830123535 80 113 2.0 4.0 0.00 0.00 0.00 71 1015.4
20260830122534 79 113 1.0 4.0 0.00 0.00 0.00 71 1015.3
20260830121534 79 113 2.0 3.0 0.00 0.00 0.00 70 1015.1